Total_Precipitation_Accumulation
1.87 1.96 2.02 2.02 2.15 2.22 2.24 2.16 2.26 2.40 2.59 2.56 2.54 2.54 2.42 2.35 2.45 2.58 2.44 2.66 2.68 2.73 2.68 2.72 2.77 3.01 3.11 3.02 3.08 3.14 3.41 3.73 3.61 3.30 2.98 2.76 2.68 2.64 2.49 2.44 2.34 2.22 2.02
1.77 1.81 1.97 2.07 2.08 2.08 2.06 2.07 2.09 2.11 2.20 2.22 2.19 2.21 2.25 2.43 2.57 2.50 2.45 2.49 2.55 2.48 2.53 2.68 2.56 2.76 2.92 2.85 2.98 3.00 3.17 3.55 3.69 3.76 3.63 3.32 3.08 2.89 2.82 2.60 2.16 1.97 2.02
1.87 1.89 2.03 1.99 1.92 1.96 2.17 2.27 2.16 2.13 2.16 2.12 2.11 2.12 2.14 2.36 2.52 2.45 2.47 2.55 2.56 2.41 2.50 2.52 2.38 2.54 2.62 2.70 2.77 2.82 3.02 3.26 3.59 3.52 3.50 3.43 3.29 3.03 3.11 2.78 2.45 2.38 1.95
1.89 1.99 2.13 2.06 2.06 2.13 2.26 2.36 2.32 2.23 2.25 2.34 2.37 2.29 2.28 2.18 2.19 2.34 2.48 2.48 2.44 2.33 2.34 2.27 2.15 2.18 2.28 2.50 2.52 2.66 2.89 3.12 3.35 3.30 3.33 3.44 3.53 3.52 3.52 3.23 3.01 2.77 2.37
1.91 2.04 2.14 2.20 2.23 2.30 2.31 2.37 2.36 2.27 2.27 2.52 2.53 2.49 2.44 2.22 2.04 2.16 2.29 2.21 2.24 2.19 2.15 1.99 1.81 1.88 2.01 2.09 1.99 2.37 2.74 2.89 2.97 3.04 3.12 3.31 3.47 3.71 3.52 3.38 3.27 3.22 2.91
1.80 1.95 2.03 2.16 2.30 2.32 2.31 2.36 2.35 2.38 2.44 2.48 2.40 2.37 2.25 1.92 1.98 1.93 1.89 1.95 2.02 2.03 2.04 2.02 1.87 1.78 1.73 1.76 1.71 1.89 2.25 2.42 2.64 2.93 3.05 3.24 3.33 3.35 3.53 3.51 3.48 3.33 3.04
1.74 1.87 1.98 2.10 2.20 2.23 2.19 2.33 2.45 2.41 2.34 2.23 2.18 2.18 2.11 2.01 1.86 1.62 1.56 1.69 1.89 1.98 2.02 2.04 1.77 1.62 1.70 1.56 1.64 1.70 1.75 1.86 2.04 2.44 2.72 2.82 2.91 2.97 3.26 3.34 3.33 3.19 3.10
1.79 1.92 2.00 2.12 2.15 2.18 2.20 2.17 2.19 2.21 2.19 2.17 2.05 2.04 2.12 2.01 1.92 1.65 1.53 1.49 1.69 1.73 1.72 1.76 1.81 1.78 1.69 1.74 1.71 1.66 1.56 1.60 1.71 1.73 1.90 2.15 2.44 2.70 2.89 3.08 3.37 3.31 3.23
1.81 1.99 2.13 2.19 2.18 2.19 2.20 2.14 2.15 2.15 2.11 2.12 2.08 2.09 2.09 2.02 1.97 1.75 1.68 1.62 1.72 1.70 1.71 1.73 1.83 1.88 1.92 1.82 1.74 1.74 1.71 1.70 1.66 1.65 1.58 1.68 1.87 2.02 2.21 2.49 2.85 3.19 3.37
1.88 2.01 2.10 2.17 2.27 2.19 2.28 2.35 2.33 2.24 2.18 2.19 2.18 2.12 2.00 1.96 1.85 1.66 1.65 1.63 1.82 1.92 2.01 1.98 1.89 1.76 1.78 1.70 1.66 1.72 1.67 1.66 1.58 1.54 1.47 1.45 1.45 1.61 1.81 2.03 2.33 2.72 3.00
1.90 2.02 2.11 2.20 2.29 2.27 2.33 2.38 2.39 2.34 2.33 2.21 2.05 2.03 2.00 1.88 1.68 1.41 1.37 1.38 1.65 1.89 1.93 1.87 1.76 1.61 1.47 1.42 1.38 1.48 1.57 1.53 1.54 1.57 1.60 1.59 1.61 1.65 1.72 1.82 2.15 2.43 2.57
1.99 1.99 2.10 2.24 2.08 2.08 2.32 2.41 2.43 2.44 2.39 2.25 2.11 2.01 2.00 1.91 1.61 1.42 1.37 1.36 1.52 1.78 1.98 1.94 1.79 1.62 1.42 1.32 1.17 1.23 1.32 1.26 1.33 1.52 1.59 1.60 1.62 1.64 1.73 1.86 2.08 2.30 2.48
2.02 2.05 2.08 2.13 2.23 2.29 2.34 2.42 2.39 2.33 2.29 2.25 2.19 2.06 2.03 2.06 1.98 1.69 1.54 1.52 1.60 1.65 1.79 1.97 1.84 1.55 1.32 1.22 1.18 1.11 1.02 1.02 1.19 1.32 1.40 1.49 1.55 1.64 1.78 1.96 2.19 2.37 2.42
2.17 2.27 2.25 2.18 2.22 2.37 2.52 2.50 2.42 2.27 2.30 2.34 2.22 2.19 2.20 2.23 2.12 1.89 1.72 1.63 1.65 1.63 1.64 1.65 1.61 1.46 1.27 1.26 1.29 1.16 1.05 1.12 1.20 1.24 1.33 1.45 1.53 1.61 1.74 1.84 2.04 2.27 2.41
2.40 2.41 2.44 2.44 2.45 2.52 2.49 2.45 2.44 2.37 2.32 2.36 2.31 2.27 2.25 2.19 2.07 1.95 1.82 1.76 1.75 1.70 1.62 1.62 1.56 1.55 1.41 1.35 1.41 1.42 1.40 1.44 1.40 1.33 1.37 1.40 1.45 1.51 1.57 1.70 1.87 2.01 2.13
2.72 2.59 2.62 2.68 2.68 2.60 2.58 2.39 2.26 2.17 2.11 2.01 2.03 2.02 1.91 1.88 1.83 1.72 1.71 1.71 1.68 1.70 1.59 1.63 1.73 1.71 1.66 1.65 1.65 1.61 1.59 1.55 1.54 1.57 1.55 1.50 1.51 1.53 1.52 1.59 1.72 1.82 1.86
2.87 2.84 2.71 2.64 2.61 2.58 2.64 2.62 2.50 2.34 2.26 2.10 1.96 1.86 1.81 1.76 1.67 1.59 1.60 1.67 1.69 1.70 1.62 1.71 1.86 1.87 1.84 1.82 1.73 1.67 1.71 1.66 1.65 1.67 1.66 1.66 1.69 1.69 1.67 1.69 1.79 1.90 1.89
2.72 2.73 2.67 2.64 2.57 2.54 2.63 2.69 2.60 2.53 2.48 2.31 2.09 1.96 1.78 1.60 1.51 1.50 1.58 1.57 1.53 1.52 1.58 1.78 1.96 1.96 1.96 1.93 1.84 1.75 1.76 1.74 1.71 1.69 1.69 1.67 1.70 1.78 1.80 1.78 1.80 1.88 1.89
2.64 2.63 2.57 2.53 2.61 2.71 2.73 2.79 2.72 2.66 2.60 2.49 2.23 2.04 1.90 1.64 1.50 1.48 1.49 1.42 1.53 1.65 1.72 1.83 1.89 1.92 1.92 1.86 1.78 1.74 1.77 1.74 1.70 1.73 1.73 1.73 1.74 1.83 1.84 1.81 1.81 1.90 1.84
2.71 2.72 2.66 2.50 2.46 2.58 2.73 2.69 2.69 2.67 2.56 2.47 2.36 2.15 1.92 1.73 1.61 1.59 1.50 1.51 1.61 1.67 1.69 1.70 1.70 1.71 1.74 1.77 1.79 1.81 1.87 1.85 1.82 1.79 1.73 1.71 1.74 1.80 1.83 1.86 1.87 1.87 1.82
2.43 2.38 2.35 2.23 2.21 2.25 2.43 2.50 2.54 2.61 2.47 2.33 2.25 2.17 1.96 1.68 1.67 1.66 1.63 1.59 1.60 1.63 1.64 1.65 1.64 1.62 1.59 1.67 1.74 1.77 1.82 1.85 1.80 1.75 1.76 1.79 1.77 1.82 1.82 1.80 1.76 1.71 1.70
2.24 2.21 2.10 2.01 2.05 2.15 2.28 2.37 2.46 2.54 2.47 2.38 2.25 2.15 2.06 1.78 1.71 1.66 1.59 1.55 1.53 1.53 1.54 1.62 1.63 1.59 1.57 1.64 1.70 1.72 1.72 1.69 1.66 1.66 1.68 1.68 1.70 1.74 1.74 1.73 1.74 1.72 1.70
2.38 2.29 2.24 2.20 2.13 2.21 2.20 2.25 2.40 2.40 2.34 2.33 2.24 2.09 1.99 1.94 1.83 1.72 1.63 1.55 1.50 1.49 1.48 1.51 1.54 1.52 1.50 1.52 1.56 1.56 1.52 1.48 1.46 1.46 1.54 1.58 1.60 1.65 1.66 1.67 1.72 1.78 1.76
2.39 2.40 2.30 2.17 2.09 2.05 2.08 2.20 2.27 2.19 2.07 2.03 1.99 1.89 1.87 1.89 1.84 1.75 1.64 1.56 1.54 1.49 1.43 1.39 1.31 1.26 1.26 1.29 1.35 1.36 1.31 1.30 1.30 1.36 1.42 1.49 1.51 1.52 1.56 1.63 1.71 1.76 1.75
2.22 2.31 2.32 2.22 2.08 1.96 1.92 1.94 1.91 1.86 1.80 1.75 1.73 1.74 1.75 1.71 1.66 1.59 1.52 1.49 1.44 1.38 1.28 1.25 1.19 1.16 1.14 1.12 1.12 1.15 1.25 1.27 1.28 1.26 1.28 1.35 1.38 1.44 1.44 1.50 1.58 1.64 1.63
2.04 2.08 2.07 2.00 1.87 1.75 1.74 1.75 1.72 1.64 1.59 1.53 1.48 1.46 1.41 1.40 1.37 1.31 1.25 1.25 1.26 1.27 1.22 1.19 1.17 1.15 1.13 1.09 1.08 1.11 1.11 1.06 1.11 1.16 1.09 1.08 1.19 1.27 1.26 1.22 1.22 1.34 1.39